Location: Cortada Guamacho
(10.5667°N, 67.0833°W)
Time: 12:19:55
(UTC+00:00)

SWIFT - Visible Passes

Search period start: 03 July 2022 00:00
Search period end: 13 July 2022 00:00
Orbit: 539 x 554 km, 20.6° (Epoch: 02 July)

Date Brightness Start Highest point End Pass type
(mag) Time Alt. Az. Time Alt. Az. Time Alt. Az.
03 Jul 2.6 08:23:56 60° N 08:24:05 60° NNE 08:28:10 10° E visible
03 Jul 2.6 23:41:41 10° SW 23:45:45 48° SSE 23:48:44 17° E visible
04 Jul 5.0 01:23:27 10° W 01:24:17 15° W 01:24:17 15° W visible
04 Jul 3.0 08:17:03 48° E 08:17:03 48° E 08:20:09 10° ESE visible
04 Jul 2.3 23:33:27 10° WSW 23:37:38 65° SSE 23:41:50 10° ENE visible
05 Jul 4.6 01:15:31 10° W 01:17:22 23° WNW 01:17:22 23° WNW visible
05 Jul 4.1 08:10:14 25° ESE 08:10:14 25° ESE 08:12:03 10° ESE visible
05 Jul 3.7 09:46:26 10° WSW 09:49:36 21° SSW 09:52:45 10° SSE visible
05 Jul 2.3 23:25:18 10° WSW 23:29:32 87° SSE 23:33:46 10° ENE visible
06 Jul 4.2 01:07:36 10° WNW 01:10:20 28° NW 01:10:20 28° NW visible
06 Jul 4.9 08:03:26 13° ESE 08:03:26 13° ESE 08:03:53 10° ESE visible
06 Jul 4.1 09:38:59 10° WSW 09:41:30 16° SSW 09:44:02 10° SSE visible
06 Jul 2.6 23:17:12 10° WSW 23:21:26 72° NNW 23:25:39 10° ENE visible
07 Jul 4.1 00:59:44 10° WNW 01:03:10 28° NNW 01:03:10 28° NNW visible
07 Jul 4.3 09:32:11 11° SW 09:33:24 12° SSW 09:34:53 10° S visible
08 Jul 4.1 00:51:52 10° WNW 00:55:23 25° N 00:55:53 24° N visible
09 Jul 4.3 00:44:00 10° WNW 00:47:23 23° N 00:48:29 20° NNE visible
10 Jul 4.4 00:36:07 10° NW 00:39:23 21° N 00:40:58 17° NNE visible
11 Jul 4.5 00:28:11 10° NW 00:31:23 20° N 00:33:22 15° NNE visible
12 Jul 4.5 00:20:13 10° NW 00:23:23 20° N 00:25:42 14° NE visible
